IRIDIUM 106 1 41917U 17003A 26174.72349780 -.00000015 00000+0 -12323-4 0 9995 2 41917 86.3959 85.8239 0001813 89.8425 270.2979 14.34217371494149 IRIDIUM 103 1 41918U 17003B 26174.71081293 -.00000002 00000+0 -78411-5 0 9994 2 41918 86.3961 85.7290 0002080 76.9300 283.2128 14.34217551494167 IRIDIUM 109 1 41919U 17003C 26174.50784998 -.00000018 00000+0 -13485-4 0 9990 2 41919 86.3962 85.8734 0002148 82.5493 277.5947 14.34217473494106 IRIDIUM 102 1 41920U 17003D 26174.47613409 .00000053 00000+0 11724-4 0 9997 2 41920 86.3961 85.8101 0002303 86.0003 274.1456 14.34216412494182 IRIDIUM 105 1 41921U 17003E 26174.92311546 .00000190 00000+0 60859-4 0 9990 2 41921 86.3960 54.0538 0002453 80.7989 279.3484 14.34218685496100 IRIDIUM 104 1 41922U 17003F 26174.69812336 .00000184 00000+0 58478-4 0 9995 2 41922 86.3962 85.7601 0002371 79.0891 281.0572 14.34219953494203 IRIDIUM 114 1 41923U 17003G 26174.70447045 .00000013 00000+0 -23977-5 0 9998 2 41923 86.3961 85.7404 0002154 79.8191 280.3248 14.34217567494182 IRIDIUM 108 1 41924U 17003H 26174.94206095 -.00000036 00000+0 -19945-4 0 9998 2 41924 86.3950 53.9354 0002188 85.7353 274.4093 14.34216197496075 IRIDIUM 112 1 41925U 17003J 26174.76155434 -.00000003 00000+0 -82019-5 0 9996 2 41925 86.3957 85.5581 0002250 82.8960 277.2491 14.34217414494218 IRIDIUM 111 1 41926U 17003K 26174.81863954 .00000181 00000+0 57672-4 0 9997 2 41926 86.3959 85.6053 0002229 83.0142 277.1307 14.34220254494207 IRIDIUM 113 1 42803U 17039A 26174.93813839 .00000008 00000+0 -42129-5 0 9992 2 42803 86.3973 319.3562 0002161 89.9903 270.1540 14.34217629472159 IRIDIUM 123 1 42804U 17039B 26174.90984857 .00000033 00000+0 45519-5 0 9992 2 42804 86.3974 350.8262 0001982 89.6453 270.4970 14.34217553470913 IRIDIUM 120 1 42805U 17039C 26174.93179574 .00000192 00000+0 61563-4 0 9990 2 42805 86.3965 319.1403 0002125 97.9427 262.2010 14.34218812472142 IRIDIUM 115 1 42806U 17039D 26174.91300060 .00000270 00000+0 74381-4 0 9994 2 42806 86.4502 319.2778 0002013 93.8672 266.2759 14.43279359475230 IRIDIUM 118 1 42807U 17039E 26174.94156137 .00000082 00000+0 22101-4 0 9996 2 42807 86.3973 350.8109 0002196 89.0532 271.0915 14.34217704470919 IRIDIUM 117 1 42808U 17039F 26174.96058869 .00000037 00000+0 60806-5 0 9997 2 42808 86.3973 350.7605 0002100 88.8447 271.2989 14.34217829470941 IRIDIUM 126 1 42809U 17039G 26174.91619029 .00000002 00000+0 -64044-5 0 9995 2 42809 86.3968 350.8305 0002060 86.8841 273.2591 14.34217093470916 IRIDIUM 124 1 42810U 17039H 26174.77748257 .00000252 00000+0 68966-4 0 9999 2 42810 86.4485 287.6029 0002225 94.6512 265.4943 14.43281352476063 IRIDIUM 128 1 42811U 17039J 26174.83716085 .00000014 00000+0 -20309-5 0 9998 2 42811 86.3964 22.3695 0002059 91.2673 268.8759 14.34217586470934 IRIDIUM 121 1 42812U 17039K 26174.93521918 .00000217 00000+0 70416-4 0 9996 2 42812 86.3975 350.8503 0002177 92.6273 267.5172 14.34217931470799 IRIDIUM 133 1 42955U 17061A 26174.93864236 .00000074 00000+0 19447-4 0 9990 2 42955 86.3968 22.4450 0002119 88.6307 271.5132 14.34217903455749 IRIDIUM 100 1 42956U 17061B 26174.93229973 .00000126 00000+0 38028-4 0 9998 2 42956 86.3963 22.3660 0002172 88.0398 272.1046 14.34217632455740 IRIDIUM 122 1 42957U 17061C 26174.83081722 .00000066 00000+0 16516-4 0 9997 2 42957 86.3965 22.4088 0002126 85.2962 274.8477 14.34218194455733 IRIDIUM 129 1 42958U 17061D 26174.85618809 .00000151 00000+0 46782-4 0 9995 2 42958 86.3967 22.4652 0002439 84.2959 275.8514 14.34217495455753 IRIDIUM 119 1 42959U 17061E 26174.82447047 .00000323 00000+0 10810-3 0 9990 2 42959 86.3965 22.4745 0002288 84.9849 275.1608 14.34217260455760 IRIDIUM 107 1 42960U 17061F 26174.84350247 .00000231 00000+0 75374-4 0 9994 2 42960 86.3967 22.4876 0001920 86.0776 274.0639 14.34218516455771 IRIDIUM 132 1 42961U 17061G 26174.84984625 .00000023 00000+0 10433-5 0 9993 2 42961 86.3966 22.4644 0002159 86.2548 273.8894 14.34217314455773 IRIDIUM 136 1 42962U 17061H 26174.95133351 .00000181 00000+0 57738-4 0 9991 2 42962 86.3967 22.4287 0002208 89.4814 270.6635 14.34218308455800 IRIDIUM 139 1 42963U 17061J 26174.95766990 .00000032 00000+0 43315-5 0 9995 2 42963 86.3968 22.4881 0002096 89.8378 270.3058 14.34217772455817 IRIDIUM 125 1 42964U 17061K 26174.94500158 .00000185 00000+0 58898-4 0 9997 2 42964 86.3969 22.5546 0001961 73.7037 286.4374 14.34216624455827 IRIDIUM 135 1 43070U 17083A 26174.91911102 .00000033 00000+0 47973-5 0 9997 2 43070 86.3972 319.2003 0002167 92.1950 267.9494 14.34217774445117 IRIDIUM 138 1 43071U 17083B 26174.94448153 .00000041 00000+0 76575-5 0 9991 2 43071 86.3984 318.8861 0002274 87.1221 273.0235 14.34217640445104 IRIDIUM 116 1 43072U 17083C 26174.91276798 .00000168 00000+0 52954-4 0 9997 2 43072 86.3970 319.1886 0002093 102.1279 258.0152 14.34217522445134 IRIDIUM 130 1 43073U 17083D 26174.95082062 .00000039 00000+0 66905-5 0 9990 2 43073 86.3976 319.4488 0001967 95.5987 264.5433 14.34216633445082 IRIDIUM 151 1 43074U 17083E 26174.92545354 .00000111 00000+0 32724-4 0 9998 2 43074 86.3970 319.2412 0002181 94.1329 266.0117 14.34217729445102 IRIDIUM 134 1 43075U 17083F 26174.68443494 .00000092 00000+0 25964-4 0 9990 2 43075 86.3968 319.3502 0002146 93.8669 266.2772 14.34217662445032 IRIDIUM 137 1 43076U 17083G 26174.90642598 .00000047 00000+0 96953-5 0 9999 2 43076 86.3975 319.3505 0002424 102.8085 257.3382 14.34217817445137 IRIDIUM 141 1 43077U 17083H 26174.83031475 .00000031 00000+0 41592-5 0 9990 2 43077 86.3970 319.2126 0002204 91.1313 269.0136 14.34217594445129 IRIDIUM 153 1 43078U 17083J 26174.78249311 -.00000022 00000+0 -14895-4 0 9992 2 43078 86.3962 287.7132 0002086 90.6974 269.4461 14.34217414446220 IRIDIUM 131 1 43079U 17083K 26174.95716598 .00000013 00000+0 -23231-5 0 9992 2 43079 86.3970 319.3461 0002122 92.3151 267.8287 14.34217341445073 IRIDIUM 144 1 43249U 18030A 26174.57952758 .00000189 00000+0 60511-4 0 9996 2 43249 86.3962 287.7269 0002192 98.1359 262.0085 14.34219273431050 IRIDIUM 149 1 43250U 18030B 26174.58587319 -.00000016 00000+0 -12774-4 0 9995 2 43250 86.3961 287.6914 0002163 93.9962 266.1482 14.34217376431078 IRIDIUM 157 1 43251U 18030C 26174.39559504 .00000037 00000+0 61275-5 0 9992 2 43251 86.3963 287.8242 0002215 94.8020 265.3429 14.34217928431020 IRIDIUM 140 1 43252U 18030D 26174.55415746 .00000181 00000+0 57654-4 0 9995 2 43252 86.3961 287.7702 0002148 95.1962 264.9479 14.34217412431100 IRIDIUM 145 1 43253U 18030E 26174.89031708 -.00000040 00000+0 -21332-4 0 9995 2 43253 86.3961 287.6022 0002032 103.4101 256.7322 14.34217299431081 IRIDIUM 146 1 43254U 18030F 26174.59221555 .00000041 00000+0 75536-5 0 9999 2 43254 86.3961 287.7389 0002200 98.0207 262.1239 14.34217183431059 IRIDIUM 148 1 43255U 18030G 26174.56050286 .00000028 00000+0 30026-5 0 9998 2 43255 86.3964 287.7955 0002306 95.9320 264.2139 14.34217825431089 IRIDIUM 142 1 43256U 18030H 26174.59855815 .00000093 00000+0 26042-4 0 9997 2 43256 86.3960 287.6684 0002241 99.9878 260.1571 14.34217938431051 IRIDIUM 150 1 43257U 18030J 26174.56684492 .00000054 00000+0 12167-4 0 9996 2 43257 86.3965 287.7980 0002146 95.5814 264.5626 14.34217003431077 IRIDIUM 143 1 43258U 18030K 26174.54781657 .00000058 00000+0 13662-4 0 9991 2 43258 86.3966 287.8987 0002170 97.4637 262.6805 14.34218165431009 IRIDIUM 161 1 43478U 18047C 26174.47810067 .00000242 00000+0 65845-4 0 9998 2 43478 86.4481 85.8411 0002534 82.0810 278.0679 14.43281462426049 IRIDIUM 152 1 43479U 18047D 26174.86937615 .00000191 00000+0 61225-4 0 9992 2 43479 86.3953 85.5385 0002239 81.8579 278.2871 14.34218563423440 IRIDIUM 147 1 43480U 18047E 26174.87572053 -.00000005 00000+0 -87402-5 0 9998 2 43480 86.3958 85.5413 0002140 86.6424 273.5017 14.34217661423440 IRIDIUM 110 1 43481U 18047F 26174.25414671 .00000015 00000+0 -16605-5 0 9999 2 43481 86.3961 85.8933 0002494 79.6435 280.5042 14.34217839423343 IRIDIUM 162 1 43482U 18047G 26174.47179369 .00000234 00000+0 63697-4 0 9990 2 43482 86.4481 85.7348 0002230 82.4559 277.6895 14.43284647426031 IRIDIUM 160 1 43569U 18061A 26174.89766798 .00000021 00000+0 28542-6 0 9992 2 43569 86.3959 53.9916 0002269 85.6494 274.4961 14.34217632414338 IRIDIUM 166 1 43570U 18061B 26174.92303738 .00000011 00000+0 -31669-5 0 9992 2 43570 86.3957 53.9313 0002128 87.4802 272.6637 14.34217757414367 IRIDIUM 158 1 43571U 18061C 26174.89132345 .00000088 00000+0 24417-4 0 9998 2 43571 86.3957 53.9544 0002153 83.3061 276.8380 14.34218403414320 IRIDIUM 165 1 43572U 18061D 26174.63761916 .00000123 00000+0 36756-4 0 9992 2 43572 86.3957 54.1071 0002080 88.4385 271.7050 14.34218738414311 IRIDIUM 155 1 43573U 18061E 26174.94840853 -.00000019 00000+0 -13895-4 0 9990 2 43573 86.3950 53.8456 0001958 83.6249 276.5170 14.34217232414322 IRIDIUM 154 1 43574U 18061F 26174.92938041 .00000070 00000+0 18085-4 0 9997 2 43574 86.3958 53.9878 0002155 88.8886 271.2557 14.34217541414373 IRIDIUM 163 1 43575U 18061G 26174.63127886 .00000042 00000+0 79119-5 0 9998 2 43575 86.3955 54.0275 0002214 83.3134 276.8313 14.34217101414302 IRIDIUM 156 1 43576U 18061H 26174.95475710 .00000175 00000+0 55447-4 0 9990 2 43576 86.3956 53.8995 0002018 84.6602 275.4824 14.34217503414348 IRIDIUM 164 1 43577U 18061J 26174.93572338 .00000069 00000+0 17733-4 0 9991 2 43577 86.3957 53.9478 0002188 89.5127 270.6319 14.34217749414383 IRIDIUM 159 1 43578U 18061K 26174.90401034 -.00000015 00000+0 -12490-4 0 9991 2 43578 86.3951 53.8977 0002131 83.6871 276.4568 14.34217357414341 IRIDIUM 180 1 43922U 19002A 26174.90350595 .00000074 00000+0 19412-4 0 9999 2 43922 86.3973 350.7891 0002248 89.4206 270.7248 14.34217846389950 IRIDIUM 176 1 43923U 19002B 26174.88767843 .00000635 00000+0 96893-4 0 9996 2 43923 86.6063 350.7370 0002328 87.4028 272.7455 14.72225533400236 IRIDIUM 168 1 43924U 19002C 26174.89715630 .00000200 00000+0 64280-4 0 9998 2 43924 86.3974 350.8693 0002229 90.5635 269.5816 14.34216382389931 IRIDIUM 173 1 43925U 19002D 26174.95424688 .00000126 00000+0 38018-4 0 9993 2 43925 86.3970 350.7337 0002176 87.8415 272.3030 14.34218209389927 IRIDIUM 169 1 43926U 19002E 26174.30358829 .00000228 00000+0 68181-4 0 9993 2 43926 86.4222 22.6356 0001682 78.0075 282.1311 14.38611400391108 IRIDIUM 172 1 43927U 19002F 26174.94790174 .00000054 00000+0 12216-4 0 9992 2 43927 86.3971 350.7443 0002252 90.4565 269.6889 14.34217089389936 IRIDIUM 175 1 43928U 19002G 26174.58349273 .00000248 00000+0 67296-4 0 9996 2 43928 86.4514 287.8469 0003338 161.5304 198.6019 14.43615685399904 IRIDIUM 171 1 43929U 19002H 26174.92887615 .00000050 00000+0 10705-4 0 9996 2 43929 86.3983 351.0594 0002050 92.9215 267.2216 14.34217822389929 IRIDIUM 170 1 43930U 19002J 26174.89385583 .00000631 00000+0 96219-4 0 9990 2 43930 86.6072 350.7358 0002366 86.9755 273.1733 14.72226752400242 IRIDIUM 167 1 43931U 19002K 26174.92253332 .00000060 00000+0 14396-4 0 9993 2 43931 86.3974 350.7777 0001958 96.1526 263.9893 14.34217890389927 IRIDIUM 181 1 56726U 23068S 26174.90073830 .00000205 00000+0 54817-4 0 9990 2 56726 86.4494 53.9841 0002405 88.0986 272.0490 14.43309297163403 IRIDIUM 177 1 56727U 23068T 26174.94753515 .00000880 00000+0 11239-3 0 9999 2 56727 86.1972 325.5798 0002366 89.5037 270.6455 14.80223180167361 IRIDIUM 174 1 56728U 23068U 26174.88153087 .00000655 00000+0 99942-4 0 9999 2 56728 86.6069 350.8900 0002424 79.8775 280.2716 14.72232645167001 IRIDIUM 178 1 56729U 23068V 26174.86904191 .00000789 00000+0 10039-3 0 9995 2 56729 86.6535 22.5671 0002572 84.5590 275.5925 14.80243473167357 IRIDIUM 179 1 56730U 23068W 26174.86366336 .00000752 00000+0 95502-4 0 9999 2 56730 86.6776 31.5686 0002460 89.0164 271.1339 14.80225879167356